Location: Aranbee
(34.0885°N, 118.2342°W)
Time: 23:12:13
(UTC+00:00)

Tiros 1 - Pass Details

Date: 27 November 2020
Orbit: 630 x 663 km, 48.4° (Epoch: 20 January)

Event Time Altitude Azimuth Distance (km) Brightness Sun altitude
Rises 04:50:18 0° 313° (NW) 2,974 - -50.5°
Reaches altitude 10° 04:52:57 10° 326° (NW) 2,055 - -51.0°
Maximum altitude 04:57:00 27° 25° (NNE) 1,228 - -51.8°
Drops below altitude 10° 05:01:01 10° 84° (E) 2,032 - -52.7°
Sets 05:03:37 0° 96° (E) 2,933 - -53.2°
